Weather History for Cheyenne, WY

Change the Weather History Date:

Wednesday, January 9, 2013

  Actual Average Record
Temperature  
Mean Temperature 38 °F 29 °F  
Max Temperature 51 °F 40 °F 60 °F (1953)
Min Temperature 24 °F 18 °F -38 °F (1875)
Degree Days  
Heating Degree Days 27 36  
Month to date heating degree days 333 325  
Since 1 July heating degree days 3035 3228  
Cooling Degree Days 0 0  
Month to date cooling degree days 0 0  
Year to date cooling degree days 0 0  
Moisture  
Dew Point 13 °F    
Average Humidity 37    
Maximum Humidity 55    
Minimum Humidity 18    
Precipitation  
Precipitation 0.00 in 0.01 in 0.29 in (1891)
Month to date precipitation T 0.10  
Year to date precipitation T 0.10  
Snow  
Snow 0.00 in 0.20 in 4.00 in (1939)
Month to date snowfall T 1.8  
Since 1 July snowfall 25.4 24.5  
Snow Depth 0.00 in    
Sea Level Pressure  
Sea Level Pressure 30.16 in    
Wind  
Wind Speed 12 mph (SW)    
Max Wind Speed 26 mph    
Max Gust Speed 35 mph    
Visibility 10 miles    
Events      
T = Trace of Precipitation, MM = Missing Value Source: NWS Daily Summary

Daily Weather History Graph

Daily Weather History Graph

Search for Another Location

Airport:

Trip Planner

Search our weather history database for the weather conditions in past years. The results will help you decide how hot, cold, wet, or windy it might be!

Date:

Astronomy

Jan. 09, 2013 Rise Set
Actual Time 7:24 AM MST 4:49 PM MST
Civil Twilight 6:53 AM MST 5:19 PM MST
Nautical Twilight 6:19 AM MST 5:54 PM MST
Astronomical Twilight 5:46 AM MST 6:27 PM MST
Moon 5:06 AM MST (1/9) 2:53 PM MST (1/9)
Length of Visible Light 10h 26m
Length of Day
9h 24m
Waning Crescent, 6% of the Moon is Illuminated
Jan 9
Waning Crescent
Jan 11
New
Jan 18
First Quarter
Jan 26
Full
Feb 3
Last Quarter

Hourly Weather History & Observations

Time (MST) Temp. Windchill Dew Point Humidity Pressure Visibility Wind Dir Wind Speed Gust Speed Precip Events Conditions
12:53 AM 34.0 °F 23.8 °F 15.1 °F 46% 30.19 in 10.0 mi West 16.1 mph - N/A   Clear
1:53 AM 34.0 °F 24.6 °F 15.1 °F 46% 30.21 in 10.0 mi West 13.8 mph - N/A   Clear
2:53 AM 34.0 °F 21.8 °F 16.0 °F 48% 30.22 in 10.0 mi West 23.0 mph 34.5 mph N/A   Clear
3:18 AM 33.8 °F 25.8 °F 15.8 °F 48% 30.23 in 10.0 mi SW 10.4 mph - N/A   Clear
3:53 AM 34.0 °F 24.2 °F 15.1 °F 46% 30.22 in 10.0 mi WSW 15.0 mph 24.2 mph N/A   Clear
4:53 AM 35.1 °F 27.4 °F 15.1 °F 44% 30.22 in 10.0 mi WSW 10.4 mph 28.8 mph N/A   Clear
5:53 AM 32.0 °F 22.5 °F 16.0 °F 52% 30.25 in 10.0 mi West 12.7 mph - N/A   Clear
6:53 AM 34.0 °F 24.6 °F 15.1 °F 46% 30.25 in 10.0 mi WSW 13.8 mph 20.7 mph N/A   Clear
7:53 AM 35.1 °F 26.9 °F 14.0 °F 42% 30.27 in 10.0 mi SW 11.5 mph - N/A   Clear
8:53 AM 41.0 °F 34.7 °F 12.9 °F 32% 30.25 in 10.0 mi SW 10.4 mph - N/A   Clear
9:53 AM 41.0 °F 34.3 °F 14.0 °F 33% 30.26 in 10.0 mi SSW 11.5 mph - N/A   Clear
10:53 AM 43.0 °F 35.4 °F 15.1 °F 32% 30.25 in 10.0 mi South 16.1 mph - N/A   Clear
11:53 AM 44.1 °F 36.8 °F 14.0 °F 30% 30.22 in 10.0 mi SSW 16.1 mph 27.6 mph N/A   Clear
12:53 PM 48.0 °F - 10.9 °F 22% 30.14 in 10.0 mi SSW 16.1 mph 23.0 mph N/A   Clear
1:53 PM 50.0 °F - 10.0 °F 20% 30.11 in 10.0 mi South 16.1 mph - N/A   Clear
2:53 PM 50.0 °F - 8.1 °F 18% 30.09 in 10.0 mi South 17.3 mph 21.9 mph N/A   Clear
3:53 PM 46.9 °F - 10.0 °F 22% 30.09 in 10.0 mi SW 10.4 mph - N/A   Clear
4:53 PM 43.0 °F 39.5 °F 12.0 °F 28% 30.10 in 10.0 mi SSW 5.8 mph - N/A   Clear
5:53 PM 35.1 °F 29.3 °F 12.9 °F 40% 30.15 in 10.0 mi South 6.9 mph - N/A   Clear
6:53 PM 36.0 °F 31.1 °F 14.0 °F 41% 30.11 in 10.0 mi SSW 5.8 mph - N/A   Clear
7:53 PM 30.0 °F 24.1 °F 12.9 °F 49% 30.11 in 10.0 mi NW 5.8 mph - N/A   Clear
8:53 PM 28.0 °F 19.3 °F 14.0 °F 56% 30.06 in 10.0 mi West 9.2 mph - N/A   Clear
9:53 PM 26.1 °F 19.4 °F 12.9 °F 58% 30.06 in 10.0 mi WSW 5.8 mph - N/A   Clear
10:53 PM 28.0 °F 20.0 °F 12.0 °F 51% 30.02 in 10.0 mi West 8.1 mph - N/A   Clear
11:53 PM 28.9 °F 22.8 °F 12.0 °F 49% 29.98 in 10.0 mi West 5.8 mph - N/A   Clear